TimeEDT,TemperatureF,Dew PointF,Humidity,Sea Level PressureIn,VisibilityMPH,Wind Direction,Wind SpeedMPH,Gust SpeedMPH,PrecipitationIn,Events,Conditions,WindDirDegrees,DateUTC
12:15 AM,58.6,56.7,93,29.68,10.0,Calm,Calm,-,N/A,,Clear,0,2013-11-02 04:15:00
12:35 AM,57.7,55.9,94,29.67,10.0,Calm,Calm,-,N/A,,Clear,0,2013-11-02 04:35:00
12:55 AM,58.1,56.1,93,29.68,10.0,Calm,Calm,-,N/A,,Clear,0,2013-11-02 04:55:00
1:15 AM,57.6,55.9,94,29.68,5.0,Calm,Calm,-,N/A,,Clear,0,2013-11-02 05:15:00
1:35 AM,56.8,55.2,94,29.67,10.0,Calm,Calm,-,N/A,,Clear,0,2013-11-02 05:35:00
1:55 AM,57.0,55.0,93,29.66,10.0,NNW,3.5,-,N/A,,Clear,340,2013-11-02 05:55:00
2:15 AM,57.4,54.5,90,29.67,10.0,Calm,Calm,-,N/A,,Clear,0,2013-11-02 06:15:00
2:35 AM,55.4,52.2,89,29.67,10.0,Calm,Calm,-,N/A,,Clear,0,2013-11-02 06:35:00
2:55 AM,55.4,52.9,91,29.66,10.0,Calm,Calm,-,N/A,,Clear,0,2013-11-02 06:55:00
3:15 AM,56.3,52.3,87,29.66,10.0,Calm,Calm,-,N/A,,Clear,0,2013-11-02 07:15:00
3:35 AM,56.3,51.8,85,29.66,10.0,Calm,Calm,-,N/A,,Mostly Cloudy,0,2013-11-02 07:35:00
3:55 AM,57.4,50.0,76,29.67,10.0,Calm,Calm,-,N/A,,Overcast,0,2013-11-02 07:55:00
4:15 AM,56.8,49.5,76,29.67,10.0,Calm,Calm,-,N/A,,Mostly Cloudy,0,2013-11-02 08:15:00
4:35 AM,54.9,50.0,84,29.67,10.0,Calm,Calm,-,N/A,,Mostly Cloudy,0,2013-11-02 08:35:00
4:55 AM,54.9,50.5,85,29.68,10.0,Calm,Calm,-,N/A,,Mostly Cloudy,0,2013-11-02 08:55:00
5:15 AM,54.5,50.0,85,29.67,10.0,Calm,Calm,-,N/A,,Mostly Cloudy,0,2013-11-02 09:15:00
5:35 AM,54.5,49.6,84,29.67,10.0,Calm,Calm,-,N/A,,Scattered Clouds,0,2013-11-02 09:35:00
5:55 AM,52.7,48.7,86,29.67,10.0,Calm,Calm,-,N/A,,Scattered Clouds,0,2013-11-02 09:55:00
6:15 AM,54.9,48.6,79,29.67,10.0,Calm,Calm,-,N/A,,Mostly Cloudy,0,2013-11-02 10:15:00
6:35 AM,54.7,49.1,81,29.68,10.0,Calm,Calm,-,N/A,,Mostly Cloudy,0,2013-11-02 10:35:00
6:55 AM,55.4,48.2,77,29.68,10.0,Calm,Calm,-,N/A,,Overcast,0,2013-11-02 10:55:00
7:15 AM,55.4,48.4,77,29.69,10.0,Calm,Calm,-,N/A,,Overcast,0,2013-11-02 11:15:00
7:35 AM,55.6,47.8,75,29.70,10.0,Calm,Calm,-,N/A,,Overcast,0,2013-11-02 11:35:00
7:55 AM,55.4,48.0,76,29.71,10.0,Calm,Calm,-,N/A,,Overcast,0,2013-11-02 11:55:00
8:15 AM,54.9,48.9,80,29.71,10.0,Calm,Calm,-,N/A,,Mostly Cloudy,0,2013-11-02 12:15:00
8:35 AM,55.6,48.7,78,29.71,10.0,Calm,Calm,-,N/A,,Scattered Clouds,0,2013-11-02 12:35:00
8:55 AM,57.2,49.8,76,29.70,10.0,Calm,Calm,-,N/A,,Scattered Clouds,0,2013-11-02 12:55:00
9:15 AM,58.1,50.2,75,29.71,10.0,Calm,Calm,-,N/A,,Mostly Cloudy,0,2013-11-02 13:15:00
9:35 AM,58.3,50.0,74,29.71,10.0,Calm,Calm,-,N/A,,Overcast,0,2013-11-02 13:35:00
9:55 AM,59.5,50.0,71,29.70,10.0,Calm,Calm,-,N/A,,Overcast,0,2013-11-02 13:55:00
10:15 AM,60.3,50.5,70,29.70,10.0,Calm,Calm,-,N/A,,Scattered Clouds,0,2013-11-02 14:15:00
10:35 AM,61.7,50.4,66,29.70,10.0,Calm,Calm,-,N/A,,Mostly Cloudy,0,2013-11-02 14:35:00
10:55 AM,61.7,49.8,65,29.70,10.0,Calm,Calm,-,N/A,,Overcast,0,2013-11-02 14:55:00
11:15 AM,62.6,47.3,57,29.68,10.0,SSE,4.6,-,N/A,,Mostly Cloudy,160,2013-11-02 15:15:00
11:35 AM,63.9,44.6,50,29.69,10.0,SSE,5.8,-,N/A,,Scattered Clouds,160,2013-11-02 15:35:00
11:55 AM,64.4,46.4,52,29.68,10.0,South,5.8,-,N/A,,Clear,180,2013-11-02 15:55:00
1:15 PM,66.7,43.3,43,29.67,10.0,SSE,5.8,-,N/A,,Clear,150,2013-11-02 17:15:00
1:35 PM,67.3,46.0,46,29.66,10.0,Calm,Calm,-,N/A,,Clear,0,2013-11-02 17:35:00
1:55 PM,67.8,45.7,45,29.65,10.0,South,4.6,-,N/A,,Scattered Clouds,170,2013-11-02 17:55:00
2:15 PM,68.0,43.7,41,29.65,10.0,South,3.5,-,N/A,,Scattered Clouds,170,2013-11-02 18:15:00
2:35 PM,67.1,44.1,43,29.65,10.0,South,3.5,-,N/A,,Mostly Cloudy,190,2013-11-02 18:35:00
2:55 PM,67.3,43.9,43,29.65,10.0,West,3.5,-,N/A,,Mostly Cloudy,280,2013-11-02 18:55:00
3:15 PM,68.4,42.6,39,29.64,10.0,West,4.6,-,N/A,,Mostly Cloudy,270,2013-11-02 19:15:00
3:35 PM,68.2,42.4,39,29.65,10.0,West,4.6,-,N/A,,Overcast,260,2013-11-02 19:35:00
3:55 PM,68.2,42.8,40,29.65,10.0,WNW,5.8,-,N/A,,Overcast,290,2013-11-02 19:55:00
4:15 PM,67.8,43.2,41,29.65,10.0,WNW,9.2,-,N/A,,Overcast,300,2013-11-02 20:15:00
4:35 PM,66.7,44.2,44,29.66,10.0,NW,13.8,18.4,N/A,,Overcast,310,2013-11-02 20:35:00
4:55 PM,65.8,43.5,44,29.66,10.0,NW,13.8,-,N/A,,Overcast,310,2013-11-02 20:55:00
5:15 PM,65.3,44.4,47,29.67,10.0,WNW,11.5,17.3,N/A,,Overcast,300,2013-11-02 21:15:00
5:35 PM,64.8,44.1,47,29.68,10.0,NW,12.7,-,N/A,,Overcast,310,2013-11-02 21:35:00
5:55 PM,63.7,44.6,50,29.70,10.0,NW,10.4,-,N/A,,Scattered Clouds,310,2013-11-02 21:55:00
6:15 PM,62.6,44.4,51,29.70,10.0,NW,8.1,-,N/A,,Scattered Clouds,320,2013-11-02 22:15:00
6:35 PM,61.2,44.6,54,29.70,10.0,NNW,5.8,-,N/A,,Clear,330,2013-11-02 22:35:00
6:55 PM,61.0,44.4,54,29.72,10.0,NW,3.5,-,N/A,,Clear,310,2013-11-02 22:55:00
7:15 PM,60.6,44.2,55,29.73,10.0,Calm,Calm,-,N/A,,Clear,0,2013-11-02 23:15:00
7:35 PM,59.5,43.9,56,29.73,10.0,Calm,Calm,-,N/A,,Clear,0,2013-11-02 23:35:00
7:55 PM,59.0,42.6,55,29.74,10.0,WNW,5.8,-,N/A,,Clear,300,2013-11-02 23:55:00
8:15 PM,58.5,41.2,53,29.76,10.0,WNW,6.9,-,N/A,,Clear,300,2013-11-03 00:15:00
8:35 PM,57.6,40.3,53,29.77,10.0,WNW,8.1,-,N/A,,Clear,300,2013-11-03 00:35:00
8:55 PM,57.4,39.2,51,29.77,10.0,NW,8.1,-,N/A,,Clear,310,2013-11-03 00:55:00
9:15 PM,55.9,39.2,53,29.77,10.0,NW,4.6,-,N/A,,Clear,310,2013-11-03 01:15:00
9:35 PM,55.4,39.2,54,29.78,10.0,NW,3.5,-,N/A,,Clear,310,2013-11-03 01:35:00
9:55 PM,55.4,39.4,55,29.78,10.0,Calm,Calm,-,N/A,,Clear,0,2013-11-03 01:55:00
10:15 PM,55.6,39.2,54,29.79,10.0,Calm,Calm,-,N/A,,Clear,0,2013-11-03 02:15:00
10:35 PM,55.4,39.4,55,29.80,10.0,WNW,3.5,-,N/A,,Clear,300,2013-11-03 02:35:00
10:55 PM,54.7,39.7,57,29.81,10.0,Calm,Calm,-,N/A,,Clear,0,2013-11-03 02:55:00
11:15 PM,55.0,39.7,56,29.81,10.0,Calm,Calm,-,N/A,,Clear,0,2013-11-03 03:15:00
11:35 PM,54.0,40.3,60,29.81,10.0,Calm,Calm,-,N/A,,Clear,0,2013-11-03 03:35:00
11:55 PM,52.7,40.3,63,29.81,10.0,NW,4.6,-,N/A,,Clear,310,2013-11-03 03:55:00